Regional Weather Roundup
Issued by NWS

Home | Current Version | Previous Version | Graphics & Text | Print | Product List | Glossary On
Versions: 1 2 3 4 5 6 7 8 9 10 11 12 13 14 15 16 17 18 19 20 21 22 23 24 25 26 27 28 29 30 31 32 33 34 35 36 37 38 39 40 41 42 43 44 45 46 47 48 49 50
000
ASUS43 KBIS 200810
RWRND

NORTH DAKOTA REGIONAL WEATHER ROUNDUP
NATIONAL WEATHER SERVICE BISMARCK ND
200 AM CST MON NOV 20 2017

NOTE: "FAIR" INDICATES FEW OR NO CLOUDS BELOW 12,000 FEET WITH NO
SIGNIFICANT WEATHER AND/OR OBSTRUCTIONS TO VISIBILITY.


NDZ001>003-009>011-017-200900-
NORTHWEST NORTH DAKOTA

CITY           SKY/WX    TMP DP  RH WIND       PRES   REMARKS
WILLISTON      CLOUDY    28  22  78 S3        29.47F
MINOT          CLOUDY    34  22  61 S14       29.44F
MINOT AFB      CLOUDY    35  23  61 SW7       29.42F
$$

NDZ018>021-031>035-040>046-200900-
SOUTHWEST NORTH DAKOTA

CITY           SKY/WX    TMP DP  RH WIND       PRES   REMARKS
BISMARCK       CLOUDY    27  21  78 CALM      29.56F
DICKINSON      CLOUDY    39  21  48 SW15      29.50F
GARRISON         N/A     34  24  67 S5        29.50F
HETTINGER ARPT CLOUDY    29  18  63 W6        29.58F
$$

NDZ004>008-012>016-024-026-027-054-200900-
NORTHEAST NORTH DAKOTA

CITY           SKY/WX    TMP DP  RH WIND       PRES   REMARKS
GRAND FORKS    CLOUDY    22  20  92 S10       29.58F WCI  11
GRND FRKS AFB  CLOUDY    21  21  98 S10       29.57F WCI  10
DEVILS LAKE    CLOUDY    25  22  88 SE8       29.51F WCI  16
$$

NDZ022-023-025-028>030-036>039-047>053-200900-
SOUTHEAST NORTH DAKOTA

CITY           SKY/WX    TMP DP  RH WIND       PRES   REMARKS
FARGO          CLOUDY    28  21  75 SE6       29.63F
JAMESTOWN      CLOUDY    24  20  84 S6        29.56F WCI  17
$$





USA.gov is the U.S. government's official web portal to all federal, state and local government web resources and services.